#timestamp,LO_Frequency,Hit,StdDev 
1611050415.2,286046999.5,N
1611050435.1,286046998.7,N
1611050436.0,286046998.7,N
1611050455.8,286046998.8,N
1611050475.7,286047000.0,N
1611050495.5,286047000.0,N
1611050515.3,286046998.7,N
1611050535.2,286047001.1,N
1611050555.0,286046998.6,N
1611050555.9,286046998.6,N
1611050575.8,286046999.3,N
1611050595.6,286046999.5,N
1611050615.4,286046996.9,N
1611050635.3,286046996.7,N
1611050655.1,286046996.7,N
1611050675.8,286046996.5,N
1611050695.7,286046999.4,N
1611050715.5,286046998.8,N
1611050735.4,286046997.1,N
1611050755.2,286046994.9,Y
1611050775.0,286046996.9,P
1611050775.9,286046996.9,P
1611050795.8,286046997.0,P
1611050815.6,286046995.3,Y
1611050835.5,286046998.5,P
1611050855.3,286047000.3,N
1611050875.1,286047001.1,N
1611050895.9,286046998.8,N
1611050915.7,286046999.3,N
1611050935.6,286046999.3,N
1611050955.4,286047000.8,N
1611050975.2,286047000.0,N
1611050995.1,286047000.0,N
1611050996.0,286047000.0,N
1611051015.8,286047000.7,N
1611051035.6,286046999.9,N
1611051055.5,286047000.4,N
1611051075.3,286047002.4,N
1611051095.2,286047000.2,N
1611051115.9,286046998.4,N
1611051135.7,286047000.2,N
1611051155.6,286047002.1,N
1611051175.4,286047002.2,N
1611051195.3,286046999.8,N
1611051215.1,286047002.2,N
1611051216.0,286047002.2,N
1611051235.8,286047001.4,N
1611051255.7,286047004.4,Y
1611051275.5,286047001.7,P
1611051295.4,286047005.5,P
1611051315.2,286047004.1,N
1611051335.0,286047002.3,N
1611051335.9,286047002.3,N
1611051355.8,286046999.9,N
1611051375.6,286047002.5,N
1611051395.4,286047002.8,N
1611051415.3,286047002.7,N
1611051435.1,286047000.1,N
1611051455.9,286046998.1,N
1611051475.7,286046998.5,N
1611051495.5,286046999.3,N
1611051515.4,286046998.4,N
1611051535.2,286046999.0,N
1611051555.1,286046999.5,N
1611051556.0,286046999.5,N
1611051575.8,286046999.3,N
1611051595.6,286046998.7,N
1611051615.5,286046999.3,N
1611051635.3,286046996.8,N
1611051655.1,286046994.9,N
1611051675.9,286046997.3,N
1611051695.7,286046999.5,N
1611051715.6,286046999.0,N
1611051735.4,286046996.6,N
1611051755.2,286046999.0,N
1611051775.1,286046998.7,N
1611051776.0,286046998.7,N
1611051795.8,286046998.5,N
1611051815.7,286046998.5,N
1611051835.5,286046998.2,N
1611051855.3,286046999.3,N
1611051875.2,286046998.0,N
1611051895.0,286046995.2,N
1611051895.9,286046995.2,N
1611051915.8,286046996.4,N
1611051935.6,286046993.5,Y
1611051955.4,286046997.9,P
1611051975.3,286046996.8,P
1611051995.1,286046997.7,P
1611052015.8,286046995.2,Y
1611052035.7,286046997.7,P
1611052055.5,286046997.9,P
1611052075.4,286046998.0,P
1611052095.2,286046997.2,Y
1611052115.0,286046996.7,P
1611052115.9,286046996.7,P
1611052135.8,286046998.8,N
1611052155.6,286046998.6,N
1611052175.5,286046999.0,N
1611052195.3,286046999.5,N
1611052215.1,286046996.6,Y
1611052235.9,286047001.0,P
1611052255.7,286047002.7,N
1611052275.5,286047001.8,N
1611052295.4,286047001.7,N
1611052315.2,286047004.4,N
1611052335.1,286047002.1,N
1611052336.0,286047002.1,N
1611052355.8,286047001.9,N
1611052375.6,286047004.1,N
1611052395.5,286047003.3,N
1611052415.3,286047004.2,N
1611052435.2,286047004.4,N
1611052455.9,286047003.5,N
1611052475.7,286047005.7,Y
1611052495.6,286047002.5,P
1611052515.4,286047001.1,P
1611052535.2,286047001.1,N
1611052555.1,286046998.4,N
1611052556.0,286046998.4,N
1611052575.8,286046996.5,N
1611052595.7,286046999.4,N
1611052615.5,286047000.9,N
1611052635.3,286047000.8,N
1611052655.2,286047002.4,N
1611052675.0,286047000.1,N
1611052675.9,286047000.1,N
1611052695.8,286047001.9,N
1611052715.6,286047000.1,N
1611052735.4,286047000.5,N
1611052755.3,286047001.1,N
1611052775.1,286047001.2,N
1611052795.8,286046998.1,N
1611052815.7,286046998.9,N
1611052835.5,286046998.7,N
1611052855.4,286046998.3,N
1611052875.2,286046999.4,N
1611052895.0,286046998.2,N
1611052895.9,286046998.2,N
1611052915.8,286046998.8,N
1611052935.6,286047000.0,N
1611052955.4,286047002.5,N
1611052975.3,286047003.1,N
1611052995.1,286047004.1,N
1611053015.9,286046999.9,N
1611053035.7,286047001.2,N
1611053055.5,286046998.6,N
1611053075.4,286046998.6,N
1611053095.2,286047000.3,N
1611053115.1,286046999.7,N
1611053116.0,286046999.7,N
1611053135.8,286047002.8,N
1611053155.6,286046999.0,N
1611053175.5,286046999.1,N
1611053195.3,286046997.4,N
1611053215.1,286046996.5,N
1611053235.9,286046994.9,N
1611053255.7,286046997.3,N
1611053275.6,286046997.0,N
1611053295.4,286046996.7,N
1611053315.2,286046997.8,N
1611053335.1,286046995.0,N
1611053336.0,286046995.0,N
1611053355.8,286046995.3,N
1611053375.7,286046996.6,N
1611053395.5,286046999.5,N
1611053415.3,286046997.5,N
1611053435.2,286046997.4,N
1611053455.0,286046996.0,N
1611053455.9,286046996.0,N
1611053475.7,286046993.4,N
1611053495.6,286046994.6,N
1611053515.4,286046993.7,N
1611053535.3,286046993.6,N
1611053555.1,286046994.3,N
1611053575.8,286046992.1,Y
1611053595.7,286046996.6,P
1611053615.5,286046997.2,P
1611053635.4,286046999.2,P
1611053655.2,286046998.4,N
1611053675.0,286046999.0,N
1611053675.9,286046999.0,N
1611053695.8,286047002.5,N
1611053715.6,286047004.1,N
1611053735.5,286047003.9,N
1611053755.3,286047001.6,N
1611053775.1,286047001.8,N
1611053795.9,286047002.4,N
1611053815.7,286046998.2,N
1611053835.5,286047002.3,N
1611053855.4,286047000.3,N
1611053875.2,286047000.9,N
1611053895.1,286046998.1,N
1611053896.0,286046998.1,N
1611053915.8,286046998.8,N
1611053935.6,286047001.1,N
1611053955.5,286047000.1,N
1611053975.3,286047009.5,Y
1611053995.2,286047014.8,P
